Sanborn, NY

4:45 AM EST on December 08, 2016 (GMT -0500)
Niagara Falls International

Weather History for KIAG - August, 2014

Change the Weather History Date:

Wednesday, August 6, 2014

  Actual Average Record
Temperature  
Mean Temperature 68 °F -  
Max Temperature 75 °F 79 °F 91 °F (2001)
Min Temperature 61 °F 59 °F 46 °F (1999)
Cooling Degree Days 3    
Growing Degree Days 18 (Base 50)    
Moisture  
Dew Point 56 °F    
Average Humidity 70    
Maximum Humidity 97    
Minimum Humidity 41    
Precipitation  
Precipitation 0.00 in - - ()
Sea Level Pressure  
Sea Level Pressure 29.99 in    
Wind  
Wind Speed 3 mph (North)    
Max Wind Speed 13 mph    
Max Gust Speed 18 mph    
Visibility 9 miles    
Events      
Averages and records for this station are not official NWS values.
T = Trace of Precipitation, MM = Missing Value Source: NWS Daily Summary

Daily Weather History Graph

Daily Weather History Graph

Search for Another Location

Airport or City:

Trip Planner

Search our weather history database for the weather conditions in past years. The results will help you decide how hot, cold, wet, or windy it might be!

Date:

Astronomy

Aug. 06, 2014 Rise Set
Actual Time 6:11 AM EDT 8:30 PM EDT
Civil Twilight 5:39 AM EDT 9:02 PM EDT
Nautical Twilight 5:00 AM EDT 9:41 PM EDT
Astronomical Twilight 4:16 AM EDT 10:25 PM EDT
Moon 4:47 PM EDT (8/6) 1:44 AM EDT (8/6)
Length of Visible Light 15h 22m
Length of Day
14h 19m
Waxing Gibbous, 77% of the Moon is Illuminated
Aug 6
Waxing Gibbous
Aug 10
Full
Aug 17
Last Quarter
Aug 25
New
Sep 2
First Quarter

Hourly Weather History & Observations

Time (EDT) Temp. Dew Point Humidity Pressure Visibility Wind Dir Wind Speed Gust Speed Precip Events Conditions
12:53 AM 62.1 °F 59.0 °F 90% 29.99 in 7.0 mi WSW 3.5 mph - N/A   Mostly Cloudy
1:53 AM 62.1 °F 59.0 °F 90% 29.98 in 8.0 mi Calm Calm - N/A   Clear
2:53 AM 62.1 °F 59.0 °F 90% 29.97 in 6.0 mi Calm Calm - N/A   Partly Cloudy
3:53 AM 62.1 °F 60.1 °F 93% 29.98 in 6.0 mi Calm Calm - N/A   Overcast
5:53 AM 61.0 °F 59.0 °F 93% 29.98 in 5.0 mi Calm Calm - N/A   Overcast
6:53 AM 61.0 °F 60.1 °F 97% 29.98 in 3.0 mi Calm Calm - N/A   Overcast
7:03 AM 62.1 °F 60.1 °F 93% 29.98 in 6.0 mi Calm Calm - N/A   Mostly Cloudy
7:53 AM 66.0 °F 62.1 °F 87% 29.98 in 7.0 mi Calm Calm - N/A   Scattered Clouds
8:53 AM 68.0 °F 61.0 °F 78% 29.99 in 10.0 mi NNW 4.6 mph - N/A   Scattered Clouds
9:53 AM 70.0 °F 61.0 °F 73% 29.99 in 10.0 mi North 4.6 mph - N/A   Scattered Clouds
10:53 AM 71.1 °F 60.1 °F 68% 30.00 in 10.0 mi North 8.1 mph - N/A   Scattered Clouds
11:53 AM 71.1 °F 57.9 °F 63% 30.00 in 10.0 mi North 10.4 mph - N/A   Scattered Clouds
12:53 PM 73.4 °F 57.2 °F 57% 30.00 in 10.0 mi NNE 10.4 mph - N/A   Scattered Clouds
1:53 PM 75.0 °F 52.0 °F 44% 29.99 in 10.0 mi North 12.7 mph 18.4 mph N/A   Mostly Cloudy
2:53 PM 75.2 °F 51.8 °F 44% 29.99 in 10.0 mi NNE 11.5 mph - N/A   Mostly Cloudy
3:53 PM 73.9 °F 50.0 °F 43% 29.97 in 10.0 mi NNW 8.1 mph - N/A   Mostly Cloudy
4:53 PM 73.9 °F 50.0 °F 43% 29.97 in 10.0 mi North 8.1 mph - N/A   Mostly Cloudy
5:53 PM 75.0 °F 50.0 °F 41% 29.97 in 10.0 mi North 8.1 mph - N/A   Mostly Cloudy
6:53 PM 73.0 °F 53.1 °F 49% 29.98 in 10.0 mi North 6.9 mph - N/A   Mostly Cloudy
7:53 PM 70.0 °F 54.0 °F 57% 29.98 in 10.0 mi WNW 3.5 mph - N/A   Scattered Clouds
8:53 PM 66.9 °F 54.0 °F 63% 29.98 in 10.0 mi Calm Calm - N/A   Scattered Clouds
9:53 PM 63.0 °F 55.0 °F 75% 29.99 in 10.0 mi Calm Calm - N/A   Partly Cloudy
10:53 PM 63.0 °F 55.0 °F 75% 30.00 in 10.0 mi Calm Calm - N/A   Clear
11:53 PM 61.0 °F 54.0 °F 78% 30.01 in 10.0 mi Calm Calm - N/A   Clear